Harrison, AR

1:44 PM CDT on June 25, 2018 (GMT -0500)
Boone County

Weather History for KHRO - September, 2017

Change the Weather History Date:

Wednesday, September 13, 2017

  Actual Average Record
Temperature  
Mean Temperature 71 °F 70 °F  
Max Temperature 84 °F 82 °F 100 °F (1939)
Min Temperature 58 °F 59 °F 32 °F (1902)
Degree Days  
Heating Degree Days 0 1  
Month to date heating degree days 4 3  
Since 1 July heating degree days 4 4  
Cooling Degree Days 6 6  
Month to date cooling degree days 57 101  
Year to date cooling degree days 1162 1312  
Growing Degree Days 21 (Base 50)    
Moisture  
Dew Point 52 °F    
Average Humidity 56    
Maximum Humidity 84    
Minimum Humidity 28    
Precipitation  
Precipitation 0.00 in 0.16 in 1.85 in (1961)
Month to date precipitation T 1.79  
Year to date precipitation 35.18 30.75  
Snow  
Snow 0.00 in 0.00 in - ()
Month to date snowfall 0.0 0.0  
Since 1 July snowfall 0.0 0.0  
Since 1 September snowfall 0.0 0.0  
Snow Depth 0.00 in    
Sea Level Pressure  
Sea Level Pressure 29.78 in    
Wind  
Wind Speed 6 mph (WNW)    
Max Wind Speed 14 mph    
Max Gust Speed 20 mph    
Visibility 10 miles    
Events      
T = Trace of Precipitation, MM = Missing Value Source: NWS Daily Summary

Daily Weather History Graph

Daily Weather History Graph

Search for Another Location

Airport or City:

Astronomy

Sep. 13, 2017 Rise Set
Actual Time 6:53 AM CDT 7:22 PM CDT
Civil Twilight 6:27 AM CDT 7:48 PM CDT
Nautical Twilight 5:57 AM CDT 8:18 PM CDT
Astronomical Twilight 5:26 AM CDT 8:49 PM CDT
Moon 12:04 AM CDT (9/13) 2:31 PM CDT (9/13)
Length of Visible Light 13h 20m
Length of Day
12h 28m
Last Quarter, 45% of the Moon is Illuminated
Sep 13
Last Quarter
Sep 20
New
Sep 27
First Quarter
Oct 5
Full
Oct 12
Last Quarter

Hourly Weather History & Observations

Time (CDT) Temp. Dew Point Humidity Pressure Visibility Wind Dir Wind Speed Gust Speed Precip Events Conditions
12:53 AM 61.0 °F 55.9 °F 83% 29.78 in 10.0 mi NNW 5.8 mph - N/A   Overcast
1:53 AM 60.1 °F 55.9 °F 86% 29.76 in 10.0 mi WNW 4.6 mph - N/A   Mostly Cloudy
2:53 AM 61.0 °F 55.9 °F 83% 29.75 in 10.0 mi WNW 5.8 mph - N/A   Overcast
3:53 AM 61.0 °F 55.9 °F 83% 29.76 in 10.0 mi WNW 6.9 mph - N/A   Overcast
4:53 AM 61.0 °F 55.0 °F 81% 29.76 in 10.0 mi West 5.8 mph - N/A   Clear
5:53 AM 61.0 °F 54.0 °F 78% 29.78 in 10.0 mi WNW 4.6 mph - N/A   Overcast
6:53 AM 61.0 °F 53.1 °F 75% 29.78 in 10.0 mi West 3.5 mph - N/A   Overcast
7:53 AM 64.0 °F 54.0 °F 70% 29.80 in 10.0 mi WNW 6.9 mph - N/A   Overcast
8:53 AM 64.0 °F 54.0 °F 70% 29.80 in 10.0 mi WNW 6.9 mph - N/A   Overcast
9:53 AM 69.1 °F 54.0 °F 58% 29.80 in 10.0 mi NW 8.1 mph - N/A   Partly Cloudy
10:53 AM 73.0 °F 53.1 °F 49% 29.80 in 10.0 mi WNW 9.2 mph - N/A   Clear
11:53 AM 77.0 °F 53.1 °F 43% 29.80 in 10.0 mi WNW 8.1 mph - N/A   Clear
12:53 PM 78.1 °F 53.1 °F 42% 29.79 in 10.0 mi West 6.9 mph - N/A   Clear
1:53 PM 80.1 °F 51.1 °F 36% 29.77 in 10.0 mi NW 9.2 mph - N/A   Clear
2:53 PM 82.9 °F 51.1 °F 33% 29.76 in 10.0 mi NW 9.2 mph 18.4 mph N/A   Clear
3:53 PM 82.9 °F 48.0 °F 29% 29.75 in 10.0 mi WNW 11.5 mph - N/A   Clear
4:53 PM 82.0 °F 46.0 °F 28% 29.75 in 10.0 mi NW 9.2 mph - N/A   Clear
5:53 PM 81.0 °F 45.0 °F 28% 29.76 in 10.0 mi West 5.8 mph - N/A   Clear
6:53 PM 77.0 °F 46.9 °F 34% 29.77 in 10.0 mi West 4.6 mph - N/A   Clear
7:53 PM 71.1 °F 48.0 °F 44% 29.78 in 10.0 mi West 4.6 mph - N/A   Clear
8:53 PM 68.0 °F 50.0 °F 52% 29.81 in 10.0 mi West 4.6 mph - N/A   Clear
9:53 PM 61.0 °F 51.1 °F 70% 29.82 in 10.0 mi NW 4.6 mph - N/A   Clear
10:53 PM 61.0 °F 50.0 °F 67% 29.83 in 10.0 mi Calm Calm - N/A   Clear
11:53 PM 57.9 °F 50.0 °F 75% 29.83 in 10.0 mi West 5.8 mph - N/A   Clear